PWSweather.com
Personal Weather Stations
Station Observations
PENICUIKWS
PenicuikGB

PenicuikGB

Lat: 55.830932, Lon: -3.224533000000065

Elevation: 166

Station Type: Fine Offset

http://weather.penicuik.org

Latest ConditionsUpdated 3:30:48 PM GMT Tuesday, Sep 25, 2018
Currently Today's Max Today's Min Today's Average
Temperature 57.4°F14.1°C 63.3°F17.4°C 39.9°F4.4°C 51.4°F10.8°C
Dew Point 44.9°F7.2°C 51.8°F11.0°C 39.1°F3.9°C 42.6°F5.9°C
Winds 7.4 mph N11.9 kmh N 7.4 mph -11.9 kmh - - 2.9 mph 4.7 kmh
Wind Gusts 10.7 mph17.2 kmh 12.1 mph19.5 kmh - -
Humidity 63% 99% 46% 75%
Pressure 30.32 in1026.8 mb 30.61 in1036.6 mb 30.32 in1026.8 mb -
Hour Temp Dew Point Humidity Winds Wind Gusts Pressure Precip Precip Rate Daily Precip Total
03:30 PM 57.4°F14.1°C 44.9°F7.2°C 63% 7.4 mph N11.9 kmh N 10.7 mph17.2 kmh 30.32 in1026.8 mb 0.00 in0.0 mm 0.00 in0.0 mm 0.00 in0.0 mm
03:15 PM 57.9°F14.4°C 45.4°F7.4°C 63% 5.6 mph N9.0 kmh N 12.1 mph19.5 kmh 30.32 in1026.8 mb 0.00 in0.0 mm 0.00 in0.0 mm 0.00 in0.0 mm
03:00 PM 57.7°F14.3°C 44.8°F7.1°C 62% 4.7 mph SW7.6 kmh SW 8.3 mph13.4 kmh 30.33 in1027.1 mb 0.00 in0.0 mm 0.00 in0.0 mm 0.00 in0.0 mm
02:45 PM 57.4°F14.1°C 44.1°F6.7°C 61% 5.6 mph NNW9.0 kmh NNW 7.6 mph12.2 kmh 30.34 in1027.4 mb 0.00 in0.0 mm 0.00 in0.0 mm 0.00 in0.0 mm
02:30 PM 57.6°F14.2°C 43.8°F6.6°C 60% 4.9 mph W7.9 kmh W 9.2 mph14.8 kmh 30.35 in1027.8 mb 0.00 in0.0 mm 0.00 in0.0 mm 0.00 in0.0 mm
02:15 PM 58.8°F14.9°C 43.2°F6.2°C 56% 5.1 mph S8.2 kmh S 7.6 mph12.2 kmh 30.35 in1027.8 mb 0.00 in0.0 mm 0.00 in0.0 mm 0.00 in0.0 mm
02:00 PM 59.9°F15.5°C 43.2°F6.2°C 54% 4.3 mph NW6.9 kmh NW 6.0 mph9.7 kmh 30.36 in1028.1 mb 0.00 in0.0 mm 0.00 in0.0 mm 0.00 in0.0 mm
01:59 PM 59.9°F15.5°C 43.2°F6.2°C 54% 4.3 mph WNW6.9 kmh WNW 6.0 mph9.7 kmh 30.36 in1028.1 mb 0.00 in0.0 mm 0.00 in0.0 mm 0.00 in0.0 mm
01:45 PM 60.1°F15.6°C 42.9°F6.1°C 53% 6.7 mph NW10.8 kmh NW 11.4 mph18.3 kmh 30.37 in1028.4 mb 0.00 in0.0 mm 0.00 in0.0 mm 0.00 in0.0 mm
01:31 PM 59.4°F15.2°C 42.2°F5.7°C 53% 5.1 mph NNE8.2 kmh NNE 11.4 mph18.3 kmh 30.38 in1028.8 mb 0.00 in0.0 mm 0.00 in0.0 mm 0.00 in0.0 mm
01:30 PM 59.4°F15.2°C 42.2°F5.7°C 53% 4.8 mph NE7.7 kmh NE 11.4 mph18.3 kmh 30.37 in1028.4 mb 0.00 in0.0 mm 0.00 in0.0 mm 0.00 in0.0 mm
01:29 PM 59.4°F15.2°C 42.2°F5.7°C 53% 4.7 mph NE7.6 kmh NE 11.4 mph18.3 kmh 30.37 in1028.4 mb 0.00 in0.0 mm 0.00 in0.0 mm 0.00 in0.0 mm
01:15 PM 60.6°F15.9°C 43.4°F6.3°C 53% 4.4 mph ENE7.1 kmh ENE 6.0 mph9.7 kmh 30.37 in1028.4 mb 0.00 in0.0 mm 0.00 in0.0 mm 0.00 in0.0 mm
01:01 PM 60.3°F15.7°C 43.1°F6.2°C 53% 5.6 mph E9.0 kmh E 8.3 mph13.4 kmh 30.38 in1028.8 mb 0.00 in0.0 mm 0.00 in0.0 mm 0.00 in0.0 mm
01:00 PM 60.3°F15.7°C 43.1°F6.2°C 53% 5.1 mph E8.2 kmh E 8.3 mph13.4 kmh 30.38 in1028.8 mb 0.00 in0.0 mm 0.00 in0.0 mm 0.00 in0.0 mm
12:45 PM 59.5°F15.3°C 42.9°F6.1°C 54% 5.4 mph WNW8.7 kmh WNW 11.4 mph18.3 kmh 30.37 in1028.4 mb 0.00 in0.0 mm 0.00 in0.0 mm 0.00 in0.0 mm
12:31 PM 57.9°F14.4°C 41.4°F5.2°C 54% 6.3 mph WSW10.1 kmh WSW 10.7 mph17.2 kmh 30.38 in1028.8 mb 0.00 in0.0 mm 0.00 in0.0 mm 0.00 in0.0 mm
12:30 PM 57.9°F14.4°C 41.9°F5.5°C 55% 6.0 mph SW9.7 kmh SW 10.7 mph17.2 kmh 30.39 in1029.1 mb 0.00 in0.0 mm 0.00 in0.0 mm 0.00 in0.0 mm
12:15 PM 57.6°F14.2°C 40.1°F4.5°C 52% 5.9 mph E9.5 kmh E 10.7 mph17.2 kmh 30.40 in1029.5 mb 0.00 in0.0 mm 0.00 in0.0 mm 0.00 in0.0 mm
12:00 PM 58.5°F14.7°C 40.4°F4.7°C 51% 5.4 mph NNE8.7 kmh NNE 6.9 mph11.1 kmh 30.41 in1029.8 mb 0.00 in0.0 mm 0.00 in0.0 mm 0.00 in0.0 mm
11:45 AM 60.6°F15.9°C 41.9°F5.5°C 50% 5.1 mph N8.2 kmh N 8.3 mph13.4 kmh 30.41 in1029.8 mb 0.00 in0.0 mm 0.00 in0.0 mm 0.00 in0.0 mm
11:30 AM 60.4°F15.8°C 42.2°F5.7°C 51% 5.2 mph S8.4 kmh S 9.2 mph14.8 kmh 30.41 in1029.8 mb 0.00 in0.0 mm 0.00 in0.0 mm 0.00 in0.0 mm
11:15 AM 62.4°F16.9°C 41.9°F5.5°C 47% 6.9 mph W11.1 kmh W 11.4 mph18.3 kmh 30.43 in1030.5 mb 0.00 in0.0 mm 0.00 in0.0 mm 0.00 in0.0 mm
11:01 AM 62.1°F16.7°C 42.7°F5.9°C 49% 5.2 mph E8.4 kmh E 12.1 mph19.5 kmh 30.42 in1030.1 mb 0.00 in0.0 mm 0.00 in0.0 mm 0.00 in0.0 mm
11:00 AM 62.2°F16.8°C 42.9°F6.1°C 49% 4.5 mph SE7.2 kmh SE 12.1 mph19.5 kmh 30.43 in1030.5 mb 0.00 in0.0 mm 0.00 in0.0 mm 0.00 in0.0 mm
10:45 AM 63.3°F17.4°C 43.9°F6.6°C 49% 6.2 mph SSE10.0 kmh SSE 9.2 mph14.8 kmh 30.43 in1030.5 mb 0.00 in0.0 mm 0.00 in0.0 mm 0.00 in0.0 mm
10:30 AM 61.2°F16.2°C 44.4°F6.9°C 54% 5.2 mph N8.4 kmh N 6.9 mph11.1 kmh 30.43 in1030.5 mb 0.00 in0.0 mm 0.00 in0.0 mm 0.00 in0.0 mm
10:15 AM 60.8°F16.0°C 44.1°F6.7°C 54% 6.0 mph ENE9.7 kmh ENE 12.1 mph19.5 kmh 30.46 in1031.5 mb 0.00 in0.0 mm 0.00 in0.0 mm 0.00 in0.0 mm
10:00 AM 61.3°F16.3°C 45.5°F7.5°C 56% 5.1 mph NW8.2 kmh NW 6.9 mph11.1 kmh 30.46 in1031.5 mb 0.00 in0.0 mm 0.00 in0.0 mm 0.00 in0.0 mm
09:45 AM 60.8°F16.0°C 45.9°F7.7°C 58% 3.8 mph NE6.1 kmh NE 5.4 mph8.7 kmh 30.46 in1031.5 mb 0.00 in0.0 mm 0.00 in0.0 mm 0.00 in0.0 mm
09:31 AM 58.1°F14.5°C 46.8°F8.2°C 66% 3.2 mph NW5.1 kmh NW 6.0 mph9.7 kmh 30.48 in1032.2 mb 0.00 in0.0 mm 0.00 in0.0 mm 0.00 in0.0 mm
09:30 AM 58.1°F14.5°C 46.8°F8.2°C 66% 3.3 mph NW5.3 kmh NW 6.0 mph9.7 kmh 30.48 in1032.2 mb 0.00 in0.0 mm 0.00 in0.0 mm 0.00 in0.0 mm
09:15 AM 54.1°F12.3°C 44.6°F7.0°C 70% 4.4 mph S7.1 kmh S 6.0 mph9.7 kmh 30.48 in1032.2 mb 0.00 in0.0 mm 0.00 in0.0 mm 0.00 in0.0 mm
09:00 AM 53.8°F12.1°C 44.2°F6.8°C 70% 2.6 mph SW4.2 kmh SW 3.1 mph5.0 kmh 30.49 in1032.5 mb 0.00 in0.0 mm 0.00 in0.0 mm 0.00 in0.0 mm
08:30 AM 57.2°F14.0°C 51.4°F10.8°C 81% 4.0 mph NNE6.4 kmh NNE 5.4 mph8.7 kmh 30.49 in1032.5 mb 0.00 in0.0 mm 0.00 in0.0 mm 0.00 in0.0 mm
08:15 AM 52.9°F11.6°C 51.8°F11.0°C 96% 1.8 mph SE2.9 kmh SE 3.1 mph5.0 kmh 30.50 in1032.8 mb 0.00 in0.0 mm 0.00 in0.0 mm 0.00 in0.0 mm
08:01 AM 48.2°F9.0°C 47.4°F8.6°C 97% 1.3 mph N2.1 kmh N 3.8 mph6.1 kmh 30.50 in1032.8 mb 0.00 in0.0 mm 0.00 in0.0 mm 0.00 in0.0 mm
08:00 AM 48.0°F8.9°C 47.5°F8.6°C 98% 1.2 mph NW1.9 kmh NW 1.6 mph2.6 kmh 30.50 in1032.8 mb 0.00 in0.0 mm 0.00 in0.0 mm 0.00 in0.0 mm
07:45 AM 45.5°F7.5°C 44.7°F7.1°C 97% 1.0 mph N1.6 kmh N 1.6 mph2.6 kmh 30.50 in1032.8 mb 0.00 in0.0 mm 0.00 in0.0 mm 0.00 in0.0 mm
07:31 AM 44.2°F6.8°C 43.7°F6.5°C 98% Calm Calm 0.7 mph1.1 kmh 30.50 in1032.8 mb 0.00 in0.0 mm 0.00 in0.0 mm 0.00 in0.0 mm
07:30 AM 44.1°F6.7°C 43.5°F6.4°C 98% 0.1 mph NW0.2 kmh NW 0.7 mph1.1 kmh 30.50 in1032.8 mb 0.00 in0.0 mm 0.00 in0.0 mm 0.00 in0.0 mm
07:15 AM 42.6°F5.9°C 42.4°F5.8°C 99% Calm Calm -- 30.52 in1033.5 mb 0.00 in0.0 mm 0.00 in0.0 mm 0.00 in0.0 mm
07:00 AM 41.7°F5.4°C 41.2°F5.1°C 98% Calm Calm -- 30.53 in1033.9 mb 0.00 in0.0 mm 0.00 in0.0 mm 0.00 in0.0 mm
06:45 AM 40.5°F4.7°C 40.2°F4.6°C 99% Calm Calm -- 30.53 in1033.9 mb 0.00 in0.0 mm 0.00 in0.0 mm 0.00 in0.0 mm
06:30 AM 39.9°F4.4°C 39.7°F4.3°C 99% 0.3 mph SW0.5 kmh SW 1.6 mph2.6 kmh 30.53 in1033.9 mb 0.00 in0.0 mm 0.00 in0.0 mm 0.00 in0.0 mm
06:00 AM 40.1°F4.5°C 39.6°F4.2°C 98% Calm Calm -- 30.54 in1034.2 mb 0.00 in0.0 mm 0.00 in0.0 mm 0.00 in0.0 mm
05:45 AM 40.3°F4.6°C 39.8°F4.3°C 98% Calm Calm -- 30.54 in1034.2 mb 0.00 in0.0 mm 0.00 in0.0 mm 0.00 in0.0 mm
05:15 AM 40.1°F4.5°C 39.6°F4.2°C 98% Calm Calm -- 30.54 in1034.2 mb 0.00 in0.0 mm 0.00 in0.0 mm 0.00 in0.0 mm
05:00 AM 39.9°F4.4°C 39.4°F4.1°C 98% Calm Calm -- 30.55 in1034.5 mb 0.00 in0.0 mm 0.00 in0.0 mm 0.00 in0.0 mm
04:45 AM 39.9°F4.4°C 39.1°F3.9°C 97% Calm Calm -- 30.55 in1034.5 mb 0.00 in0.0 mm 0.00 in0.0 mm 0.00 in0.0 mm
04:30 AM 39.9°F4.4°C 39.1°F3.9°C 97% 0.3 mph S0.5 kmh S 0.7 mph1.1 kmh 30.55 in1034.5 mb 0.00 in0.0 mm 0.00 in0.0 mm 0.00 in0.0 mm
04:15 AM 39.9°F4.4°C 39.1°F3.9°C 97% 0.3 mph SW0.5 kmh SW 0.7 mph1.1 kmh 30.55 in1034.5 mb 0.00 in0.0 mm 0.00 in0.0 mm 0.00 in0.0 mm
04:00 AM 39.9°F4.4°C 39.1°F3.9°C 97% 0.5 mph SW0.8 kmh SW 1.6 mph2.6 kmh 30.55 in1034.5 mb 0.00 in0.0 mm 0.00 in0.0 mm 0.00 in0.0 mm
03:45 AM 40.1°F4.5°C 39.3°F4.1°C 97% 0.5 mph SSW0.8 kmh SSW 1.6 mph2.6 kmh 30.56 in1034.9 mb 0.00 in0.0 mm 0.00 in0.0 mm 0.00 in0.0 mm
03:30 AM 40.3°F4.6°C 39.5°F4.2°C 97% 0.1 mph SW0.2 kmh SW 0.7 mph1.1 kmh 30.56 in1034.9 mb 0.00 in0.0 mm 0.00 in0.0 mm 0.00 in0.0 mm
03:15 AM 40.6°F4.8°C 39.9°F4.4°C 97% 0.6 mph SSW1.0 kmh SSW 1.6 mph2.6 kmh 30.57 in1035.2 mb 0.00 in0.0 mm 0.00 in0.0 mm 0.00 in0.0 mm
03:00 AM 41.2°F5.1°C 40.1°F4.5°C 96% Calm Calm -- 30.58 in1035.6 mb 0.00 in0.0 mm 0.00 in0.0 mm 0.00 in0.0 mm
02:45 AM 41.7°F5.4°C 40.7°F4.8°C 96% 0.3 mph SW0.5 kmh SW 0.7 mph1.1 kmh 30.58 in1035.6 mb 0.00 in0.0 mm 0.00 in0.0 mm 0.00 in0.0 mm
02:30 AM 41.9°F5.5°C 40.8°F4.9°C 96% Calm Calm -- 30.57 in1035.2 mb 0.00 in0.0 mm 0.00 in0.0 mm 0.00 in0.0 mm
02:15 AM 41.9°F5.5°C 40.6°F4.8°C 95% 0.2 mph WSW0.3 kmh WSW 1.6 mph2.6 kmh 30.59 in1035.9 mb 0.00 in0.0 mm 0.00 in0.0 mm 0.00 in0.0 mm
02:00 AM 42.1°F5.6°C 40.8°F4.9°C 95% 0.5 mph W0.8 kmh W 1.6 mph2.6 kmh 30.59 in1035.9 mb 0.00 in0.0 mm 0.00 in0.0 mm 0.00 in0.0 mm
01:45 AM 42.3°F5.7°C 40.9°F4.9°C 95% 0.5 mph SW0.8 kmh SW 2.2 mph3.5 kmh 30.59 in1035.9 mb 0.00 in0.0 mm 0.00 in0.0 mm 0.00 in0.0 mm
01:30 AM 42.8°F6.0°C 41.2°F5.1°C 94% 0.1 mph NW0.2 kmh NW 0.7 mph1.1 kmh 30.59 in1035.9 mb 0.00 in0.0 mm 0.00 in0.0 mm 0.00 in0.0 mm
01:15 AM 43.3°F6.3°C 41.7°F5.4°C 94% Calm Calm -- 30.60 in1036.2 mb 0.00 in0.0 mm 0.00 in0.0 mm 0.00 in0.0 mm
01:00 AM 43.7°F6.5°C 42.1°F5.6°C 94% 0.5 mph SSW0.8 kmh SSW 1.6 mph2.6 kmh 30.60 in1036.2 mb 0.00 in0.0 mm 0.00 in0.0 mm 0.00 in0.0 mm
12:45 AM 43.9°F6.6°C 42.3°F5.7°C 94% 0.4 mph SW0.6 kmh SW 1.6 mph2.6 kmh 30.60 in1036.2 mb 0.00 in0.0 mm 0.00 in0.0 mm 0.00 in0.0 mm
12:30 AM 43.7°F6.5°C 42.1°F5.6°C 94% 0.5 mph WSW0.8 kmh WSW 1.6 mph2.6 kmh 30.60 in1036.2 mb 0.00 in0.0 mm 0.00 in0.0 mm 0.00 in0.0 mm
12:15 AM 43.7°F6.5°C 42.1°F5.6°C 94% 0.1 mph SSE0.2 kmh SSE 0.7 mph1.1 kmh 30.61 in1036.6 mb 0.00 in0.0 mm 0.00 in0.0 mm 0.00 in0.0 mm
12:00 AM 44.1°F6.7°C 42.4°F5.8°C 94% 1.0 mph NW1.6 kmh NW 3.1 mph5.0 kmh 30.61 in1036.6 mb 0.00 in0.0 mm 0.00 in0.0 mm 0.00 in0.0 mm